�������l�o���
Date,Time,MP-1(��Sv/h),MP-2(��Sv/h),MP-3(��Sv/h),MP-4(��Sv/h),MP-5(��Sv/h),MP-6(��Sv/h),MP-7(��Sv/h),MP-8(��Sv/h),����,����(m/s),���J
2022/09/13,00:00,0.598,0.850,0.536,1.029,0.739,0.341,0.595,0.557,�k��,1.2,��
2022/09/13,00:10,0.598,0.850,0.535,1.030,0.741,0.341,0.594,0.556,�k�k��,1.1,��
2022/09/13,00:20,0.600,0.848,0.536,1.030,0.740,0.341,0.593,0.557,�k�k��,0.9,��
2022/09/13,00:30,0.597,0.849,0.535,1.030,0.740,0.342,0.594,0.558,�k,0.9,��
2022/09/13,00:40,0.599,0.849,0.535,1.030,0.740,0.343,0.595,0.557,�k�k��,1.1,��
2022/09/13,00:50,0.598,0.849,0.536,1.030,0.742,0.342,0.594,0.559,�k�k��,0.9,��
2022/09/13,01:00,0.600,0.849,0.537,1.028,0.741,0.342,0.595,0.558,�k�k��,0.8,��
2022/09/13,01:10,0.597,0.848,0.536,1.030,0.740,0.341,0.596,0.558,�k�k��,1.5,��
2022/09/13,01:20,0.599,0.849,0.537,1.030,0.739,0.342,0.595,0.559,�k�k��,1.5,��
2022/09/13,01:30,0.598,0.847,0.535,1.031,0.742,0.342,0.594,0.556,�k,2.0,��
2022/09/13,01:40,0.598,0.847,0.535,1.032,0.742,0.342,0.594,0.559,�k�k��,1.7,��
2022/09/13,01:50,0.597,0.850,0.535,1.030,0.741,0.342,0.595,0.557,�k�k��,1.7,��
2022/09/13,02:00,0.598,0.848,0.537,1.032,0.742,0.342,0.596,0.558,�k��,1.9,��
2022/09/13,02:10,0.597,0.848,0.534,1.030,0.741,0.341,0.595,0.559,�k��,1.7,��
2022/09/13,02:20,0.597,0.849,0.534,1.029,0.739,0.342,0.595,0.559,���k��,1.2,��
2022/09/13,02:30,0.597,0.846,0.535,1.031,0.739,0.341,0.597,0.558,�k,1.2,��
2022/09/13,02:40,0.598,0.849,0.536,1.030,0.741,0.341,0.596,0.557,�k,2.0,��
2022/09/13,02:50,0.597,0.849,0.536,1.029,0.740,0.343,0.596,0.559,�k�k��,2.0,��
2022/09/13,03:00,0.598,0.846,0.536,1.030,0.739,0.340,0.595,0.559,�k,1.7,��
2022/09/13,03:10,0.597,0.849,0.536,1.031,0.738,0.342,0.596,0.557,�k�k��,1.9,��
2022/09/13,03:20,0.598,0.849,0.536,1.030,0.738,0.342,0.595,0.558,�k��,2.0,��
2022/09/13,03:30,0.598,0.849,0.535,1.030,0.740,0.342,0.595,0.558,�k��,1.7,��
2022/09/13,03:40,0.599,0.848,0.537,1.031,0.738,0.341,0.597,0.558,�k��,1.7,��
2022/09/13,03:50,0.597,0.847,0.537,1.029,0.739,0.340,0.595,0.557,�k�k��,1.2,��
2022/09/13,04:00,0.597,0.848,0.534,1.029,0.742,0.342,0.595,0.559,�k,1.2,��
2022/09/13,04:10,0.596,0.849,0.535,1.032,0.740,0.342,0.595,0.558,�k,1.1,��
2022/09/13,04:20,0.596,0.848,0.534,1.030,0.739,0.341,0.596,0.558,�k�k��,1.2,��
2022/09/13,04:30,0.597,0.846,0.535,1.029,0.740,0.342,0.594,0.558,�k,1.1,��
2022/09/13,04:40,0.598,0.848,0.537,1.031,0.737,0.341,0.593,0.559,�k��,1.2,��
2022/09/13,04:50,0.598,0.847,0.536,1.031,0.740,0.341,0.595,0.558,���k��,0.9,��
2022/09/13,05:00,0.596,0.849,0.537,1.031,0.739,0.342,0.595,0.559,�k��,0.8,��
2022/09/13,05:10,0.598,0.847,0.535,1.030,0.738,0.341,0.594,0.558,�k��,0.6,��
2022/09/13,05:20,0.597,0.848,0.535,1.028,0.739,0.341,0.594,0.558,-,CALM,��
2022/09/13,05:30,0.598,0.847,0.535,1.030,0.740,0.339,0.595,0.558,-,CALM,��
2022/09/13,05:40,0.597,0.847,0.536,1.030,0.737,0.340,0.595,0.556,-,CALM,��
2022/09/13,05:50,0.599,0.846,0.534,1.029,0.739,0.341,0.594,0.560,-,CALM,��
2022/09/13,06:00,0.596,0.847,0.535,1.030,0.739,0.341,0.596,0.559,-,CALM,��
2022/09/13,06:10,0.597,0.847,0.536,1.028,0.739,0.341,0.596,0.559,��,0.8,��
2022/09/13,06:20,0.597,0.849,0.536,1.031,0.740,0.340,0.595,0.558,��쓌,0.8,��
2022/09/13,06:30,0.599,0.848,0.536,1.030,0.739,0.341,0.595,0.559,��쓌,1.1,��
2022/09/13,06:40,0.599,0.848,0.534,1.030,0.740,0.341,0.596,0.558,��,1.2,��
2022/09/13,06:50,0.596,0.846,0.535,1.031,0.739,0.341,0.595,0.559,��쓌,1.1,��
2022/09/13,07:00,0.599,0.850,0.534,1.030,0.737,0.342,0.597,0.558,��,2.2,��
2022/09/13,07:10,0.598,0.848,0.534,1.032,0.738,0.340,0.595,0.558,��,2.0,��
2022/09/13,07:20,0.598,0.845,0.536,1.029,0.738,0.339,0.595,0.558,��,2.0,��
2022/09/13,07:30,0.597,0.846,0.533,1.029,0.739,0.340,0.595,0.559,��,2.6,��
2022/09/13,07:40,0.596,0.845,0.535,1.030,0.738,0.340,0.596,0.559,��쓌,2.2,��
2022/09/13,07:50,0.597,0.844,0.534,1.029,0.739,0.338,0.596,0.559,��쓌,2.6,��
2022/09/13,08:00,0.598,0.845,0.535,1.030,0.739,0.339,0.597,0.558,��쓌,3.4,��
2022/09/13,08:10,0.598,0.845,0.535,1.031,0.737,0.340,0.595,0.558,��쓌,2.5,��
2022/09/13,08:20,0.597,0.847,0.533,1.029,0.738,0.340,0.596,0.558,��,2.9,��
2022/09/13,08:30,0.596,0.844,0.532,1.030,0.737,0.339,0.595,0.556,��쓌,2.5,��
2022/09/13,08:40,0.598,0.845,0.535,1.029,0.739,0.340,0.595,0.557,��쓌,2.6,��
2022/09/13,08:50,0.596,0.844,0.535,1.031,0.739,0.340,0.594,0.556,��쓌,2.6,��
2022/09/13,09:00,0.596,0.845,0.536,1.032,0.739,0.340,0.595,0.558,�쓌,2.0,��
2022/09/13,09:10,0.597,0.846,0.534,1.030,0.740,0.339,0.594,0.556,�쓌,2.0,��
2022/09/13,09:20,0.597,0.846,0.536,1.029,0.740,0.341,0.595,0.556,�쓌,1.9,��
2022/09/13,09:30,0.598,0.844,0.536,1.030,0.741,0.339,0.596,0.556,���k��,1.7,��
2022/09/13,09:40,0.596,0.848,0.534,1.029,0.739,0.339,0.595,0.559,���쓌,2.5,��
2022/09/13,09:50,0.596,0.845,0.535,1.031,0.739,0.339,0.596,0.557,��,2.0,��
2022/09/13,10:00,0.598,0.846,0.536,1.031,0.739,0.341,0.594,0.558,���쓌,2.2,��
2022/09/13,10:10,0.599,0.845,0.535,1.031,0.739,0.342,0.596,0.557,���쓌,2.8,��
2022/09/13,10:20,0.597,0.846,0.534,1.031,0.738,0.341,0.594,0.558,�쓌,3.3,��
2022/09/13,10:30,0.598,0.848,0.535,1.033,0.740,0.340,0.596,0.557,�쓌,2.6,��
2022/09/13,10:40,0.600,0.847,0.536,1.030,0.740,0.341,0.596,0.557,���쓌,2.3,��
2022/09/13,10:50,0.599,0.844,0.535,1.032,0.741,0.340,0.596,0.558,���쓌,2.2,��
2022/09/13,11:00,0.599,0.844,0.535,1.034,0.740,0.339,0.595,0.559,���쓌,2.6,��
2022/09/13,11:10,0.599,0.842,0.535,1.032,0.742,0.341,0.596,0.558,��,2.3,��
2022/09/13,11:20,0.600,0.845,0.536,1.029,0.739,0.340,0.596,0.556,���쓌,3.3,��
2022/09/13,11:30,0.599,0.843,0.536,1.029,0.739,0.341,0.596,0.558,���쓌,2.5,��
2022/09/13,11:40,0.600,0.845,0.537,1.032,0.740,0.341,0.597,0.558,�쓌,2.6,��
2022/09/13,11:50,0.598,0.846,0.537,1.032,0.742,0.341,0.595,0.557,���쓌,3.1,��
2022/09/13,12:00,0.598,0.848,0.535,1.031,0.739,0.340,0.595,0.558,�쓌,2.9,��
2022/09/13,12:10,0.600,0.846,0.537,1.032,0.741,0.340,0.595,0.558,��쓌,3.4,��
2022/09/13,12:20,0.599,0.848,0.537,1.033,0.742,0.341,0.596,0.557,���쓌,3.3,��
2022/09/13,12:30,0.600,0.849,0.536,1.035,0.741,0.340,0.597,0.558,�쓌,1.7,��
2022/09/13,12:40,0.601,0.848,0.535,1.034,0.743,0.340,0.594,0.558,�쓌,3.3,��
2022/09/13,12:50,0.600,0.849,0.535,1.032,0.743,0.340,0.597,0.558,���쓌,3.5,��
2022/09/13,13:00,0.599,0.849,0.535,1.034,0.743,0.341,0.597,0.556,���쓌,3.1,��
2022/09/13,13:10,0.599,0.849,0.536,1.034,0.741,0.340,0.596,0.557,���쓌,2.6,��
2022/09/13,13:20,0.600,0.847,0.535,1.033,0.741,0.340,0.597,0.559,���쓌,3.0,��
2022/09/13,13:30,0.599,0.846,0.536,1.033,0.742,0.340,0.598,0.556,��,3.0,��
2022/09/13,13:40,0.600,0.847,0.537,1.031,0.744,0.339,0.597,0.557,�쓌,3.6,��
2022/09/13,13:50,0.602,0.848,0.537,1.032,0.741,0.338,0.596,0.557,��쓌,3.2,��
2022/09/13,14:00,0.602,0.849,0.538,1.033,0.740,0.341,0.597,0.557,��쓌,2.8,��
2022/09/13,14:10,0.600,0.847,0.535,1.034,0.741,0.340,0.596,0.558,��쓌,1.9,��
2022/09/13,14:20,0.602,0.849,0.537,1.033,0.743,0.340,0.598,0.556,�쓌,2.6,��
2022/09/13,14:30,0.601,0.848,0.536,1.034,0.744,0.339,0.597,0.557,�쓌,3.8,��
2022/09/13,14:40,0.602,0.847,0.535,1.032,0.743,0.340,0.596,0.557,��쓌,3.4,��
2022/09/13,14:50,0.600,0.850,0.535,1.033,0.743,0.341,0.594,0.557,��쓌,3.4,��
2022/09/13,15:00,0.599,0.848,0.535,1.032,0.741,0.340,0.597,0.557,�쓌,3.7,��
2022/09/13,15:10,0.596,0.849,0.536,1.035,0.743,0.340,0.596,0.557,��쓌,3.4,��
2022/09/13,15:20,0.594,0.848,0.535,1.036,0.743,0.342,0.598,0.556,��쓌,3.9,��
2022/09/13,15:30,0.593,0.850,0.537,1.033,0.744,0.341,0.597,0.557,�쓌,3.4,��
2022/09/13,15:40,0.593,0.851,0.536,1.034,0.742,0.341,0.597,0.558,�쓌,2.3,��
2022/09/13,15:50,0.594,0.849,0.536,1.033,0.743,0.340,0.597,0.558,��쓌,3.2,��
2022/09/13,16:00,0.591,0.851,0.537,1.035,0.744,0.340,0.596,0.556,��쓌,3.2,��
2022/09/13,16:10,0.592,0.851,0.537,1.035,0.744,0.341,0.597,0.557,��쓌,3.4,��
2022/09/13,16:20,0.592,0.849,0.537,1.033,0.746,0.340,0.598,0.558,��쓌,2.5,��
2022/09/13,16:30,0.591,0.850,0.537,1.035,0.746,0.341,0.595,0.558,��쓌,2.6,��
2022/09/13,16:40,0.595,0.849,0.536,1.034,0.742,0.341,0.596,0.559,��쓌,2.9,��
2022/09/13,16:50,0.594,0.850,0.538,1.034,0.744,0.341,0.595,0.557,��쓌,3.2,��
2022/09/13,17:00,0.594,0.850,0.537,1.033,0.746,0.341,0.595,0.558,��쓌,3.1,��
2022/09/13,17:10,0.595,0.851,0.539,1.033,0.743,0.342,0.597,0.559,��쓌,2.3,��
2022/09/13,17:20,0.596,0.852,0.537,1.034,0.744,0.343,0.596,0.559,��쓌,2.3,��
2022/09/13,17:30,0.594,0.852,0.540,1.034,0.743,0.341,0.597,0.560,��쓌,2.0,��
2022/09/13,17:40,0.594,0.852,0.537,1.037,0.743,0.342,0.597,0.559,��쓌,1.9,��
2022/09/13,17:50,0.595,0.852,0.539,1.034,0.743,0.341,0.597,0.559,��쓌,1.9,��
2022/09/13,18:00,0.594,0.851,0.538,1.035,0.743,0.342,0.597,0.559,��쓌,1.4,��
2022/09/13,18:10,0.593,0.852,0.539,1.036,0.744,0.342,0.596,0.559,��쓌,1.7,��
2022/09/13,18:20,0.593,0.851,0.538,1.033,0.745,0.341,0.597,0.559,���쓌,1.2,��
2022/09/13,18:30,0.594,0.851,0.537,1.037,0.744,0.341,0.596,0.558,��쓌,1.4,��
2022/09/13,18:40,0.594,0.853,0.539,1.036,0.743,0.342,0.596,0.558,��,1.7,��
2022/09/13,18:50,0.596,0.853,0.538,1.036,0.744,0.341,0.596,0.558,��,1.1,��
2022/09/13,19:00,0.592,0.852,0.538,1.036,0.745,0.341,0.595,0.560,��,0.8,��
2022/09/13,19:10,0.593,0.854,0.537,1.036,0.744,0.342,0.596,0.560,-,CALM,��
2022/09/13,19:20,0.592,0.852,0.538,1.036,0.744,0.342,0.596,0.560,-,CALM,��
2022/09/13,19:30,0.593,0.853,0.539,1.035,0.746,0.340,0.595,0.560,��쓌,0.6,��
2022/09/13,19:40,0.592,0.851,0.539,1.034,0.746,0.342,0.597,0.559,�쓌,0.8,��
2022/09/13,19:50,0.593,0.852,0.538,1.035,0.745,0.341,0.596,0.560,-,CALM,��
2022/09/13,20:00,0.591,0.854,0.537,1.034,0.745,0.343,0.595,0.559,-,CALM,��
2022/09/13,20:10,0.593,0.852,0.538,1.035,0.744,0.341,0.595,0.558,-,CALM,��
2022/09/13,20:20,0.593,0.852,0.537,1.035,0.746,0.341,0.596,0.560,-,CALM,��
2022/09/13,20:30,0.594,0.852,0.538,1.036,0.745,0.344,0.598,0.558,��,1.7,��
2022/09/13,20:40,0.591,0.853,0.539,1.035,0.745,0.341,0.597,0.560,��,2.3,��
2022/09/13,20:50,0.592,0.852,0.539,1.034,0.745,0.342,0.595,0.560,��,2.5,��
2022/09/13,21:00,0.591,0.853,0.538,1.037,0.745,0.343,0.597,0.559,��,0.9,��
2022/09/13,21:10,0.594,0.853,0.537,1.035,0.747,0.341,0.595,0.558,��,1.7,��
2022/09/13,21:20,0.591,0.852,0.538,1.035,0.744,0.342,0.596,0.558,��,1.5,��
2022/09/13,21:30,0.592,0.853,0.538,1.033,0.744,0.342,0.598,0.560,��,2.0,��
2022/09/13,21:40,0.591,0.854,0.540,1.035,0.744,0.342,0.597,0.559,��,3.8,��
2022/09/13,21:50,0.592,0.853,0.538,1.034,0.745,0.343,0.599,0.558,��,3.5,��
2022/09/13,22:00,0.593,0.853,0.538,1.036,0.745,0.342,0.597,0.561,��,2.6,��
2022/09/13,22:10,0.592,0.851,0.539,1.035,0.744,0.343,0.597,0.559,��,2.0,��
2022/09/13,22:20,0.591,0.851,0.539,1.035,0.745,0.343,0.598,0.561,��,0.6,��
2022/09/13,22:30,0.593,0.853,0.539,1.035,0.743,0.342,0.598,0.559,��,1.1,��
2022/09/13,22:40,0.594,0.854,0.539,1.036,0.745,0.342,0.598,0.559,-,CALM,��
2022/09/13,22:50,0.594,0.855,0.539,1.036,0.744,0.343,0.598,0.560,��,0.8,��
2022/09/13,23:00,0.594,0.854,0.540,1.035,0.745,0.342,0.597,0.558,���쐼,1.5,��
2022/09/13,23:10,0.594,0.854,0.539,1.036,0.746,0.344,0.596,0.561,���k��,1.2,��
2022/09/13,23:20,0.595,0.855,0.540,1.036,0.747,0.343,0.597,0.561,-,CALM,��
2022/09/13,23:30,0.595,0.857,0.540,1.037,0.747,0.344,0.598,0.561,�k��,1.2,��
2022/09/13,23:40,0.596,0.855,0.541,1.038,0.747,0.343,0.597,0.560,�k��,0.6,��
2022/09/13,23:50,0.597,0.857,0.539,1.040,0.745,0.344,0.598,0.561,���k��,0.8,��
